Regional Weather Roundup
Issued by NWS

Home | Current Version | Previous Version | Text Only | Print | Product List | Glossary On
Versions: 1 2 3 4 5 6 7 8 9 10 11 12 13 14 15 16 17 18 19 20 21 22 23 24 25 26 27 28 29 30 31 32 33 34 35 36 37 38 39 40 41 42 43 44 45 46 47 48 49 50
000
ASUS43 KDTX 161210
RWRMI
MICHIGAN HOURLY REGIONAL WEATHER ROUNDUP
NATIONAL WEATHER SERVICE DETROIT/PONTIAC MI
700 AM EST SUN JAN 16 2022

NOTE: "FAIR" INDICATES FEW OR NO CLOUDS BELOW 12,000 FEET WITH NO
SIGNIFICANT WEATHER AND/OR OBSTRUCTION TO VISIBILITY.

MIZ047>049-052>055-059>063-066>070-074>076-081>083-161300-
SOUTHEAST LOWER MICHIGAN

CITY           SKY/WX    TMP DP  RH WIND       PRES   REMARKS
ADRIAN         PTCLDY     9   6  88 NE5       30.13F WCI   1
6HR MIN TEMP:   9; 6HR MAX TEMP:  11;

ALMA           CLEAR     -1  -4  89 CALM      30.13F
6HR MIN TEMP:  -2; 6HR MAX TEMP:   1;

ANN ARBOR      PTCLDY     9   6  88 CALM      30.12F
BAD AXE        PTCLDY    -8 -11  84 CALM      30.15F
6HR MIN TEMP: -10; 6HR MAX TEMP:  -6;

CARO           CLEAR     -2  -7  81 CALM      30.14F
DETROIT CITY   CLOUDY    11   7  84 CALM      30.15F
6HR MIN TEMP:  10; 6HR MAX TEMP:  12;

DETROIT        PTCLDY     9   6  88 NE5       30.15S WCI   1
6HR MIN TEMP:   9; 6HR MAX TEMP:  11; 6HR PCP: TRACE;

FLINT          CLEAR      4   0  83 E3        30.13F
6HR MIN TEMP:   4; 6HR MAX TEMP:   6;

GROSSE ILE     CLEAR     15  11  84 NE7       30.15S WCI   5
6HR MIN TEMP:  13; 6HR MAX TEMP:  16;

HILLSDALE      MOCLDY    11   9  92 SE7       30.06F FOG     WCI   1
6HR MIN TEMP:   9; 6HR MAX TEMP:  12;

HOWELL         CLEAR      6   4  91 CALM      30.09F
6HR MIN TEMP:   4; 6HR MAX TEMP:   7;


CITY           SKY/WX    TMP DP  RH WIND       PRES   REMARKS
JACKSON        CLEAR      6   2  83 CALM      30.10F
6HR MIN TEMP:   5; 6HR MAX TEMP:   8;

LAMBERTVILLE   CLEAR      9   6  86 CALM      30.13F
6HR MIN TEMP:   9; 6HR MAX TEMP:  13;

LANSING        CLEAR      4  -2  76 NE3       30.12F
6HR MIN TEMP:   4; 6HR MAX TEMP:   8;

LAPEER         FLURRIES   3   1  90 CALM      30.13F
6HR MIN TEMP:  -3; 6HR MAX TEMP:   3;

MASON          CLEAR      5   1  85 CALM      30.10F
6HR MIN TEMP:   5; 6HR MAX TEMP:   8;

MONROE         CLEAR     10   7  88 CALM      30.14S
6HR MIN TEMP:  10; 6HR MAX TEMP:  13;

MT. CLEMENS    PTCLDY     9   8  98 CALM      30.14F
6HR MIN TEMP:   6; 6HR MAX TEMP:  10;

PONTIAC        FLURRIES   5   2  87 CALM      30.09F
6HR MIN TEMP:   4; 6HR MAX TEMP:   7; 6HR PCP: TRACE;

PORT HOPE        N/A      2  -1  88 SW5       30.15F WCI  -8
6HR MIN TEMP:   0; 6HR MAX TEMP:   5;

PORT HURON     PTCLDY     9   3  78 E3        30.15F
TRI CITIES     CLEAR     -4  -9  79 CALM      30.15F
6HR MIN TEMP:  -5; 6HR MAX TEMP:   2;

MIDLAND        PTCLDY   -10 -16  75 CALM      30.14F
6HR MIN TEMP: -11; 6HR MAX TEMP:  -6;

TROY           CLOUDY     9   6  90 E5        30.15F WCI   0
SAGINAW HB     CLEAR     -1  -7  76 CALM      30.16F
6HR MIN TEMP:  -1; 6HR MAX TEMP:   2;

$$
MIZ043>046-050>051-056>058-064>065-071>073-077>080-161300-
SOUTHWEST LOWER MICHIGAN

CITY           SKY/WX    TMP DP  RH WIND       PRES   REMARKS
BATTLE CREEK   CLEAR      8   1  73 E3        30.09F
6HR MIN TEMP:   5; 6HR MAX TEMP:  12;

BENTON HARBOR  CLEAR      6   1  80 E6        30.09F WCI  -4
6HR MIN TEMP:   6; 6HR MAX TEMP:  11;

BIG RAPIDS     PTCLDY    -6 -10  83 CALM      30.08F
6HR MIN TEMP:  -7; 6HR MAX TEMP:   1;

COLDWATER      CLEAR      8   5  87 NE3       30.09F
6HR MIN TEMP:   7; 6HR MAX TEMP:  10;

FREMONT        FAIR       4  -1  79 E5        30.09F WCI  -5
6HR MIN TEMP:   2; 6HR MAX TEMP:   6;

HOLLAND        CLEAR      4  -2  76 E3        30.11F
6HR MIN TEMP:   1; 6HR MAX TEMP:   8;

GRAND RAPIDS   CLEAR      2  -1  88 E5        30.11F WCI  -8
6HR MIN TEMP:   2; 6HR MAX TEMP:   6;

IONIA          FAIR       1  -1  90 N3        30.12F
6HR MIN TEMP:   1; 6HR MAX TEMP:   5;

KALAMAZOO      CLEAR      6   0  76 CALM      30.09F
6HR MIN TEMP:   6; 6HR MAX TEMP:  10;

LUDINGTON      CLOUDY    10   1  67 E5        30.07F WCI   1
6HR MIN TEMP:  -2; 6HR MAX TEMP:  10;

MARSHALL       PTCLDY     6   1  83 E3        30.09F
6HR MIN TEMP:   5; 6HR MAX TEMP:  10;

MOUNT PLEASANT CLEAR     -3  -7  83 CALM      30.12F
6HR MIN TEMP:  -4; 6HR MAX TEMP:   1;

MUSKEGON       CLEAR      4  -2  76 SE5       30.11F WCI  -5
6HR MIN TEMP:   2; 6HR MAX TEMP:   7;

SOUTH HAVEN    CLEAR      6   3  86 CALM      30.10F
$$
MIZ016>042-161300-
NORTHERN LOWER MICHIGAN

CITY           SKY/WX    TMP DP  RH WIND       PRES   REMARKS
ALPENA         PTCLDY   -11 -17  75 SE3       30.12F
6HR MIN TEMP: -13; 6HR MAX TEMP:  -6;

BEAVER ISLAND  CLOUDY    20  18  93 S7        30.02F WCI  11
6HR MIN TEMP:  15; 6HR MAX TEMP:  20;

BELLAIRE       PTCLDY    -4  -8  80 CALM      30.10F
6HR MIN TEMP:  -6; 6HR MAX TEMP:   4;

CADILLAC       PTCLDY     4  -3  71 S5        30.01F WCI  -5
6HR MIN TEMP: -12; 6HR MAX TEMP:   5;

CHARLEVOIX     PTCLDY     6   1  81 SE6       30.07F WCI  -5
6HR MIN TEMP:   3; 6HR MAX TEMP:   7;

FRANKFORT      CLOUDY    11   4  74 SE8       30.06F WCI  -1
GAYLORD        CLEAR      1  -5  75 S7        30.02F WCI -12
6HR MIN TEMP:  -3; 6HR MAX TEMP:   3;

GRAYLING       PTCLDY   -17 -22  76 CALM      30.05F
HARBOR SPRINGS PTCLDY     6   1  80 SW3       30.07F
HOUGHTON LAKE  PTCLDY    -1  -6  79 S5        30.08F WCI -11
6HR MIN TEMP:  -9; 6HR MAX TEMP:  -1;

MANISTEE       CLOUDY     6   1  80 VRB3      30.08F
OSCODA         PTCLDY    -4  -8  81 SW7       30.15F WCI -18
6HR MIN TEMP:  -9; 6HR MAX TEMP:   1;

PELLSTON       PTCLDY    -8 -12  83 CALM      30.08F
6HR MIN TEMP: -14; 6HR MAX TEMP:  -3;

ROGERS CITY    CLEAR      2  -2  83 S8        30.10F WCI -11
TRAVERSE CITY  MOCLDY     4  -2  76 S5        30.07F WCI  -5
6HR MIN TEMP:  -2; 6HR MAX TEMP:   6;

$$
MIZ007>008-015-161300-
EASTERN UPPER MICHIGAN

CITY           SKY/WX    TMP DP  RH WIND       PRES   REMARKS
KINROSS        FLURRIES  11   8  88 S10       30.03F WCI  -3
6HR MIN TEMP:  -7; 6HR MAX TEMP:  11; 6HR PCP: TRACE;

MACKINAC ISLAN MOCLDY     7   3  81 S9G16     30.06S WCI  -6
6HR MIN TEMP:   7; 6HR MAX TEMP:  10;

NEWBERRY       CLOUDY    12  11  94 S5        29.97F WCI   4
6HR MIN TEMP:   0; 6HR MAX TEMP:  12;

S. S. MARIE    CLOUDY    10   4  76 SE6       30.04F WCI   0
6HR MIN TEMP:  -6; 6HR MAX TEMP:  10; 6HR PCP: TRACE;

MUNISING         N/A     13   6  74 S12G30    29.96F WCI  -1
6HR MIN TEMP:   8; 6HR MAX TEMP:  13;

$$
MIZ004>006-011>014-085-161300-
CENTRAL UPPER MICHIGAN

CITY           SKY/WX    TMP DP  RH WIND       PRES   REMARKS
MANISTIQUE     CLOUDY    17  12  82 SW9       29.99F WCI   5
6HR MIN TEMP:  10; 6HR MAX TEMP:  17;

ESCANABA       MOCLDY     6   3  87 SW5       30.02F WCI  -3
6HR MIN TEMP:   2; 6HR MAX TEMP:   7;

MENOMINEE        N/A    N/A N/A N/A MISG        N/A
SAWYER-GWINN   CLEAR     10   7  85 SW16      29.89F WCI  -7
$$
MIZ001>003-009>011-084-161300-
WESTERN UPPER MICHIGAN

CITY           SKY/WX    TMP DP  RH WIND       PRES   REMARKS
IRON MOUNTAIN  MOCLDY     8   3  80 S5        29.91F WCI   0
6HR MIN TEMP:   2; 6HR MAX TEMP:   8;

HOUGHTON       CLOUDY    14   2  58 SW14      29.78F WCI  -1
6HR MIN TEMP:  10; 6HR MAX TEMP:  14;

COPPER HARBOR    N/A     16   3  56 W12G25    29.81F WCI   3
6HR MIN TEMP:  14; 6HR MAX TEMP:  16;

IRONWOOD       CLOUDY    14   3  61 SW12G22   29.79F WCI   0
6HR MIN TEMP:  10; 6HR MAX TEMP:  14; 6HR PCP: TRACE;

$$

ABBREVIATIONS USED IN REMARKS
   TC - TEMPERATURE IN CELSIUS
  WCI - WIND CHILL INDEX
   HX - HEAT INDEX
  VSB - VISIBILITY




USA.gov is the U.S. government's official web portal to all federal, state and local government web resources and services.